This is the latest recevied weather packets stored in our database for station/object NorthRyde. If no packets are shown the sender has not sent any weather packets the latest 10 day(s).
| Time | Temp. | Humidity | Pressure | Rain* | Wind** | Luminosity | Snow |
|---|---|---|---|---|---|---|---|
| 1778363193 | 10.56° C | 93% | 1029.5 hPa | 0 mm | - | 54 W/m² | - |
| 1778363136 | 10.56° C | 93% | 1029.6 hPa | 0 mm | - | 37 W/m² | - |
| 1778363069 | 10.56° C | 93% | 1029.5 hPa | 0 mm | - | 35 W/m² | - |
| 1778363010 | 10.56° C | 93% | 1029.5 hPa | 0 mm | - | 35 W/m² | - |
| 1778362956 | 10.56° C | 93% | 1029.5 hPa | 0 mm | - | 35 W/m² | - |
| 1778362936 | 10.56° C | 93% | 1029.5 hPa | 0 mm | - | 42 W/m² | - |
| 1778362915 | 10.56° C | 93% | 1029.5 hPa | 0 mm | - | 51 W/m² | - |
| 1778362887 | 10.56° C | 93% | 1029.5 hPa | 0 mm | - | 37 W/m² | - |
| 1778362705 | 10.56° C | 93% | 1029.5 hPa | 0 mm | - | 33 W/m² | - |
| 1778362646 | 10.56° C | 93% | 1029.5 hPa | 0 mm | - | 33 W/m² | - |
| 1778362581 | 10.56° C | 93% | 1029.5 hPa | 0 mm | - | 32 W/m² | - |
| 1778362519 | 10.56° C | 93% | 1029.5 hPa | 0 mm | - | 32 W/m² | - |
| 1778362458 | 10.56° C | 93% | 1029.4 hPa | 0 mm | - | 32 W/m² | - |
| 1778362397 | 10° C | 93% | 1029.4 hPa | 0 mm | - | 32 W/m² | - |
| 1778362348 | 10° C | 92% | 1029.4 hPa | 0 mm | - | 30 W/m² | - |
| 1778362326 | 10° C | 92% | 1029.3 hPa | 0 mm | - | 30 W/m² | - |
| 1778362305 | 10° C | 92% | 1029.4 hPa | 0 mm | - | 28 W/m² | - |
| 1778362282 | 10° C | 92% | 1029.5 hPa | 0 mm | - | 28 W/m² | - |
| 1778362090 | 10° C | 92% | 1029.3 hPa | 0 mm | - | 28 W/m² | - |
| 1778362022 | 10° C | 92% | 1029.3 hPa | 0 mm | - | 28 W/m² | - |
| 1778361964 | 10° C | 92% | 1029.3 hPa | 0 mm | - | 26 W/m² | - |
| 1778361904 | 10° C | 92% | 1029.3 hPa | 0 mm | - | 28 W/m² | - |
| 1778361842 | 10° C | 92% | 1029.3 hPa | 0 mm | - | 32 W/m² | - |
| 1778361784 | 10° C | 92% | 1029.3 hPa | 0 mm | - | 32 W/m² | - |
| 1778361720 | 10° C | 92% | 1029.1 hPa | 0 mm | - | 28 W/m² | - |
* Rain latest hour (hover to see other rain measurements)
** Current wind speed in m/s (hover to see current wind gust speed)